Year,Month,Day,Hour,Minute,Value (Times are PST for temperature in C)
2016,08,25,00,00,22.40
2016,08,25,00,01,22.30
2016,08,25,00,02,22.30
2016,08,25,00,03,22.20
2016,08,25,00,04,22.10
2016,08,25,00,05,22.00
2016,08,25,00,06,21.90
2016,08,25,00,07,21.80
2016,08,25,00,08,21.80
2016,08,25,00,09,21.70
2016,08,25,00,10,21.70
2016,08,25,00,11,21.60
2016,08,25,00,12,21.50
2016,08,25,00,13,21.40
2016,08,25,00,14,21.40
2016,08,25,00,15,21.30
2016,08,25,00,16,21.20
2016,08,25,00,17,21.20
2016,08,25,00,18,21.10
2016,08,25,00,19,21.10
2016,08,25,00,20,21.10
2016,08,25,00,21,21.10
2016,08,25,00,22,21.10
2016,08,25,00,23,21.10
2016,08,25,00,24,21.00
2016,08,25,00,25,21.00
2016,08,25,00,26,21.00
2016,08,25,00,27,20.90
2016,08,25,00,28,20.90
2016,08,25,00,29,20.80
2016,08,25,00,30,20.80
2016,08,25,00,31,20.80
2016,08,25,00,32,20.70
2016,08,25,00,33,20.70
2016,08,25,00,34,20.60
2016,08,25,00,35,20.50
2016,08,25,00,36,20.50
2016,08,25,00,37,20.40
2016,08,25,00,38,20.30
2016,08,25,00,39,20.30
2016,08,25,00,40,20.20
2016,08,25,00,41,20.10
2016,08,25,00,42,20.10
2016,08,25,00,43,20.00
2016,08,25,00,44,20.00
2016,08,25,00,45,19.90
2016,08,25,00,46,19.90
2016,08,25,00,47,19.90
2016,08,25,00,48,19.90
2016,08,25,00,49,19.90
2016,08,25,00,50,19.90
2016,08,25,00,51,19.90
2016,08,25,00,52,20.00
2016,08,25,00,53,20.10
2016,08,25,00,54,20.10
2016,08,25,00,55,20.20
2016,08,25,00,56,20.30
2016,08,25,00,57,20.40
2016,08,25,00,58,20.50
2016,08,25,00,59,20.60
2016,08,25,01,00,20.70
2016,08,25,01,01,20.90
2016,08,25,01,02,21.00
2016,08,25,01,03,21.10
2016,08,25,01,04,21.20
2016,08,25,01,05,21.30
2016,08,25,01,06,21.30
2016,08,25,01,07,21.40
2016,08,25,01,08,21.50
2016,08,25,01,09,21.50
2016,08,25,01,10,21.50
2016,08,25,01,11,21.60
2016,08,25,01,12,21.60
2016,08,25,01,13,21.60
2016,08,25,01,14,21.70
2016,08,25,01,15,21.70
2016,08,25,01,16,21.70
2016,08,25,01,17,21.70
2016,08,25,01,18,21.80
2016,08,25,01,19,21.80
2016,08,25,01,20,21.80
2016,08,25,01,21,21.80
2016,08,25,01,22,21.70
2016,08,25,01,23,21.70
2016,08,25,01,24,21.70
2016,08,25,01,25,21.70
2016,08,25,01,26,21.60
2016,08,25,01,27,21.60
2016,08,25,01,28,21.50
2016,08,25,01,29,21.50
2016,08,25,01,30,21.40
2016,08,25,01,31,21.40
2016,08,25,01,32,21.40
2016,08,25,01,33,21.30
2016,08,25,01,34,21.30
2016,08,25,01,35,21.30
2016,08,25,01,36,21.20
2016,08,25,01,37,21.10
2016,08,25,01,38,21.10
2016,08,25,01,39,21.00
2016,08,25,01,40,20.90
2016,08,25,01,41,20.80
2016,08,25,01,42,20.80
2016,08,25,01,43,20.70
2016,08,25,01,44,20.70
2016,08,25,01,45,20.60
2016,08,25,01,46,20.50
2016,08,25,01,47,20.50
2016,08,25,01,48,20.40
2016,08,25,01,49,20.30
2016,08,25,01,50,20.20
2016,08,25,01,51,20.20
2016,08,25,01,52,20.10
2016,08,25,01,53,20.00
2016,08,25,01,54,19.90
2016,08,25,01,55,19.80
2016,08,25,01,56,19.70
2016,08,25,01,57,19.60
2016,08,25,01,58,19.50
2016,08,25,01,59,19.40
2016,08,25,02,00,19.40
2016,08,25,02,01,19.30
2016,08,25,02,02,19.20
2016,08,25,02,03,19.10
2016,08,25,02,04,19.00
2016,08,25,02,05,19.00
2016,08,25,02,06,18.90
2016,08,25,02,07,18.80
2016,08,25,02,08,18.80
2016,08,25,02,09,18.70
2016,08,25,02,10,18.70
2016,08,25,02,11,18.70
2016,08,25,02,12,18.60
2016,08,25,02,13,18.60
2016,08,25,02,14,18.60
2016,08,25,02,15,18.50
2016,08,25,02,16,18.50
2016,08,25,02,17,18.50
2016,08,25,02,18,18.50
2016,08,25,02,19,18.40
2016,08,25,02,20,18.40
2016,08,25,02,21,18.40
2016,08,25,02,22,18.40
2016,08,25,02,23,18.40
2016,08,25,02,24,18.60
2016,08,25,02,25,18.70
2016,08,25,02,26,18.80
2016,08,25,02,27,19.00
2016,08,25,02,28,19.20
2016,08,25,02,29,19.40
2016,08,25,02,30,19.50
2016,08,25,02,31,19.70
2016,08,25,02,32,19.80
2016,08,25,02,33,19.90
2016,08,25,02,34,20.00
2016,08,25,02,35,20.00
2016,08,25,02,36,20.10
2016,08,25,02,37,20.20
2016,08,25,02,38,20.20
2016,08,25,02,39,20.30
2016,08,25,02,40,20.40
2016,08,25,02,41,20.40
2016,08,25,02,42,20.40
2016,08,25,02,43,20.50
2016,08,25,02,44,20.50
2016,08,25,02,45,20.50
2016,08,25,02,46,20.50
2016,08,25,02,47,20.50
2016,08,25,02,48,20.50
2016,08,25,02,49,20.50
2016,08,25,02,50,20.50
2016,08,25,02,51,20.50
2016,08,25,02,52,20.50
2016,08,25,02,53,20.50
2016,08,25,02,54,20.60
2016,08,25,02,55,20.60
2016,08,25,02,56,20.60
2016,08,25,02,57,20.60
2016,08,25,02,58,20.60
2016,08,25,02,59,20.70
2016,08,25,03,00,20.70
2016,08,25,03,01,20.70
2016,08,25,03,02,20.70
2016,08,25,03,03,20.70
2016,08,25,03,04,20.70
2016,08,25,03,05,20.70
2016,08,25,03,06,20.80
2016,08,25,03,07,20.80
2016,08,25,03,08,20.80
2016,08,25,03,09,20.80
2016,08,25,03,10,20.80
2016,08,25,03,11,20.70
2016,08,25,03,12,20.70
2016,08,25,03,13,20.60
2016,08,25,03,14,20.50
2016,08,25,03,15,20.40
2016,08,25,03,16,20.30
2016,08,25,03,17,20.20
2016,08,25,03,18,20.10
2016,08,25,03,19,20.10
2016,08,25,03,20,20.10
2016,08,25,03,21,20.00
2016,08,25,03,22,20.00
2016,08,25,03,23,20.00
2016,08,25,03,24,20.00
2016,08,25,03,25,20.00
2016,08,25,03,26,19.90
2016,08,25,03,27,19.90
2016,08,25,03,28,19.80
2016,08,25,03,29,19.80
2016,08,25,03,30,19.70
2016,08,25,03,31,19.60
2016,08,25,03,32,19.60
2016,08,25,03,33,19.50
2016,08,25,03,34,19.50
2016,08,25,03,35,19.40
2016,08,25,03,36,19.30
2016,08,25,03,37,19.20
2016,08,25,03,38,19.10
2016,08,25,03,39,19.00
2016,08,25,03,40,18.90
2016,08,25,03,41,18.80
2016,08,25,03,42,18.70
2016,08,25,03,43,18.70
2016,08,25,03,44,18.60
2016,08,25,03,45,18.50
2016,08,25,03,46,18.50
2016,08,25,03,47,18.40
2016,08,25,03,48,18.30
2016,08,25,03,49,18.20
2016,08,25,03,50,18.20
2016,08,25,03,51,18.10
2016,08,25,03,52,18.10
2016,08,25,03,53,18.00
2016,08,25,03,54,18.00
2016,08,25,03,55,17.90
2016,08,25,03,56,17.90
2016,08,25,03,57,17.90
2016,08,25,03,58,17.80
2016,08,25,03,59,17.80
2016,08,25,04,00,17.80
2016,08,25,04,01,17.70
2016,08,25,04,02,17.70
2016,08,25,04,03,17.60
2016,08,25,04,04,17.50
2016,08,25,04,05,17.50
2016,08,25,04,06,17.40
2016,08,25,04,07,17.40
2016,08,25,04,08,17.40
2016,08,25,04,09,17.30
2016,08,25,04,10,17.30
2016,08,25,04,11,17.30
2016,08,25,04,12,17.30
2016,08,25,04,13,17.30
2016,08,25,04,14,17.30
2016,08,25,04,15,17.30
2016,08,25,04,16,17.20
2016,08,25,04,17,17.20
2016,08,25,04,18,17.20
2016,08,25,04,19,17.10
2016,08,25,04,20,17.10
2016,08,25,04,21,17.00
2016,08,25,04,22,17.00
2016,08,25,04,23,16.90
2016,08,25,04,24,16.90
2016,08,25,04,25,16.90
2016,08,25,04,26,16.90
2016,08,25,04,27,16.80
2016,08,25,04,28,16.80
2016,08,25,04,29,16.80
2016,08,25,04,30,16.80
2016,08,25,04,31,16.80
2016,08,25,04,32,16.70
2016,08,25,04,33,16.70
2016,08,25,04,34,16.70
2016,08,25,04,35,16.60
2016,08,25,04,36,16.60
2016,08,25,04,37,16.50
2016,08,25,04,38,16.50
2016,08,25,04,39,16.50
2016,08,25,04,40,16.50
2016,08,25,04,41,16.40
2016,08,25,04,42,16.40
2016,08,25,04,43,16.40
2016,08,25,04,44,16.50
2016,08,25,04,45,16.60
2016,08,25,04,46,16.60
2016,08,25,04,47,16.70
2016,08,25,04,48,16.80
2016,08,25,04,49,16.90
2016,08,25,04,50,16.90
2016,08,25,04,51,17.00
2016,08,25,04,52,17.00
2016,08,25,04,53,17.10
2016,08,25,04,54,17.10
2016,08,25,04,55,17.10
2016,08,25,04,56,17.10
2016,08,25,04,57,17.10
2016,08,25,04,58,17.10
2016,08,25,04,59,17.00
2016,08,25,05,00,17.00
2016,08,25,05,01,16.90
2016,08,25,05,02,16.90
2016,08,25,05,03,16.90
2016,08,25,05,04,16.90
2016,08,25,05,05,16.90
2016,08,25,05,06,16.90
2016,08,25,05,07,17.00
2016,08,25,05,08,17.00
2016,08,25,05,09,17.10
2016,08,25,05,10,17.10
2016,08,25,05,11,17.20
2016,08,25,05,12,17.20
2016,08,25,05,13,17.30
2016,08,25,05,14,17.40
2016,08,25,05,15,17.60
2016,08,25,05,16,17.70
2016,08,25,05,17,17.90
2016,08,25,05,18,18.10
2016,08,25,05,19,18.30
2016,08,25,05,20,18.40
2016,08,25,05,21,18.60
2016,08,25,05,22,18.70
2016,08,25,05,23,18.80
2016,08,25,05,24,18.90
2016,08,25,05,25,19.00
2016,08,25,05,26,19.10
2016,08,25,05,27,19.10
2016,08,25,05,28,19.20
2016,08,25,05,29,19.20
2016,08,25,05,30,19.20
2016,08,25,05,31,19.20
2016,08,25,05,32,19.20
2016,08,25,05,33,19.20
2016,08,25,05,34,19.20
2016,08,25,05,35,19.20
2016,08,25,05,36,19.20
2016,08,25,05,37,19.20
2016,08,25,05,38,19.20
2016,08,25,05,39,19.20
2016,08,25,05,40,19.10
2016,08,25,05,41,19.10
2016,08,25,05,42,19.10
2016,08,25,05,43,19.10
2016,08,25,05,44,19.10
2016,08,25,05,45,19.10
2016,08,25,05,46,19.20
2016,08,25,05,47,19.20
2016,08,25,05,48,19.10
2016,08,25,05,49,19.10
2016,08,25,05,50,19.00
2016,08,25,05,51,19.00
2016,08,25,05,52,19.00
2016,08,25,05,53,19.00
2016,08,25,05,54,19.00
2016,08,25,05,55,19.00
2016,08,25,05,56,19.00
2016,08,25,05,57,19.10
2016,08,25,05,58,19.10
2016,08,25,05,59,19.10
2016,08,25,06,00,19.20
2016,08,25,06,01,19.20
2016,08,25,06,02,19.20
2016,08,25,06,03,19.30
2016,08,25,06,04,19.30
2016,08,25,06,05,19.40
2016,08,25,06,06,19.40
2016,08,25,06,07,19.40
2016,08,25,06,08,19.40
2016,08,25,06,09,19.40
2016,08,25,06,10,19.40
2016,08,25,06,11,19.50
2016,08,25,06,12,19.50
2016,08,25,06,13,19.50
2016,08,25,06,14,19.50
2016,08,25,06,15,19.50
2016,08,25,06,16,19.50
2016,08,25,06,17,19.40
2016,08,25,06,18,19.40
2016,08,25,06,19,19.40
2016,08,25,06,20,19.40
2016,08,25,06,21,19.40
2016,08,25,06,22,19.40
2016,08,25,06,23,19.40
2016,08,25,06,24,19.40
2016,08,25,06,25,19.30
2016,08,25,06,26,19.30
2016,08,25,06,27,19.30
2016,08,25,06,28,19.30
2016,08,25,06,29,19.30
2016,08,25,06,30,19.30
2016,08,25,06,31,19.20
2016,08,25,06,32,19.20
2016,08,25,06,33,19.20
2016,08,25,06,34,19.10
2016,08,25,06,35,19.10
2016,08,25,06,36,19.00
2016,08,25,06,37,18.90
2016,08,25,06,38,18.80
2016,08,25,06,39,18.70
2016,08,25,06,40,18.60
2016,08,25,06,41,18.40
2016,08,25,06,42,18.30
2016,08,25,06,43,18.20
2016,08,25,06,44,18.10
2016,08,25,06,45,18.10
2016,08,25,06,46,18.00
2016,08,25,06,47,18.00
2016,08,25,06,48,18.00
2016,08,25,06,49,18.00
2016,08,25,06,50,18.10
2016,08,25,06,51,18.20
2016,08,25,06,52,18.20
2016,08,25,06,53,18.30
2016,08,25,06,54,18.40
2016,08,25,06,55,18.50
2016,08,25,06,56,18.60
2016,08,25,06,57,18.70
2016,08,25,06,58,18.80
2016,08,25,06,59,18.90
2016,08,25,07,00,18.90
2016,08,25,07,01,19.00
2016,08,25,07,02,19.10
2016,08,25,07,03,19.10
2016,08,25,07,04,19.10
2016,08,25,07,05,19.20
2016,08,25,07,06,19.20
2016,08,25,07,07,19.20
2016,08,25,07,08,19.20
2016,08,25,07,09,19.40
2016,08,25,07,10,19.40
2016,08,25,07,11,19.50
2016,08,25,07,12,19.50
2016,08,25,07,13,19.60
2016,08,25,07,14,19.60
2016,08,25,07,15,19.70
2016,08,25,07,16,19.70
2016,08,25,07,17,19.70
2016,08,25,07,18,19.80
2016,08,25,07,19,19.80
2016,08,25,07,20,19.80
2016,08,25,07,21,19.90
2016,08,25,07,22,19.90
2016,08,25,07,23,19.90
2016,08,25,07,24,20.00
2016,08,25,07,25,20.00
2016,08,25,07,26,20.10
2016,08,25,07,27,20.10
2016,08,25,07,28,20.20
2016,08,25,07,29,20.20
2016,08,25,07,30,20.20
2016,08,25,07,31,20.30
2016,08,25,07,32,20.30
2016,08,25,07,33,20.30
2016,08,25,07,34,20.40
2016,08,25,07,35,20.40
2016,08,25,07,36,20.50
2016,08,25,07,37,20.50
2016,08,25,07,38,20.60
2016,08,25,07,39,20.60
2016,08,25,07,40,20.70
2016,08,25,07,41,20.70
2016,08,25,07,42,20.70
2016,08,25,07,43,20.80
2016,08,25,07,44,20.80
2016,08,25,07,45,20.90
2016,08,25,07,46,20.90
2016,08,25,07,47,20.90
2016,08,25,07,48,21.00
2016,08,25,07,49,21.00
2016,08,25,07,50,21.10
2016,08,25,07,51,21.10
2016,08,25,07,52,21.20
2016,08,25,07,53,21.20
2016,08,25,07,54,21.20
2016,08,25,07,55,21.30
2016,08,25,07,56,21.30
2016,08,25,07,57,21.30
2016,08,25,07,58,21.40
2016,08,25,07,59,21.40
2016,08,25,08,00,21.40
2016,08,25,08,01,21.50
2016,08,25,08,02,21.50
2016,08,25,08,03,21.60
2016,08,25,08,04,21.60
2016,08,25,08,05,21.60
2016,08,25,08,06,21.70
2016,08,25,08,07,21.70
2016,08,25,08,08,21.70
2016,08,25,08,09,21.80
2016,08,25,08,10,21.80
2016,08,25,08,11,21.80
2016,08,25,08,12,21.80
2016,08,25,08,13,21.80
2016,08,25,08,14,21.80
2016,08,25,08,15,21.80
2016,08,25,08,16,21.80
2016,08,25,08,17,21.80
2016,08,25,08,18,21.80
2016,08,25,08,19,21.90
2016,08,25,08,20,21.90
2016,08,25,08,21,21.90
2016,08,25,08,22,21.90
2016,08,25,08,23,22.00
2016,08,25,08,24,22.00
2016,08,25,08,25,22.10
2016,08,25,08,26,22.10
2016,08,25,08,27,22.10
2016,08,25,08,28,22.10
2016,08,25,08,29,22.20
2016,08,25,08,30,22.20
2016,08,25,08,31,22.20
2016,08,25,08,32,22.20
2016,08,25,08,33,22.20
2016,08,25,08,34,22.30
2016,08,25,08,35,22.30
2016,08,25,08,36,22.30
2016,08,25,08,37,22.30
2016,08,25,08,38,22.30
2016,08,25,08,39,22.40
2016,08,25,08,40,22.40
2016,08,25,08,41,22.40
2016,08,25,08,42,22.40
2016,08,25,08,43,22.40
2016,08,25,08,44,22.40
2016,08,25,08,45,22.40
2016,08,25,08,46,22.40
2016,08,25,08,47,22.50
2016,08,25,08,48,22.50
2016,08,25,08,49,22.50
2016,08,25,08,50,22.60
2016,08,25,08,51,22.60
2016,08,25,08,52,22.70
2016,08,25,08,53,22.70
2016,08,25,08,54,22.70
2016,08,25,08,55,22.80
2016,08,25,08,56,22.80
2016,08,25,08,57,22.80
2016,08,25,08,58,22.90
2016,08,25,08,59,22.90
2016,08,25,09,00,22.90
2016,08,25,09,01,23.00
2016,08,25,09,02,23.00
2016,08,25,09,03,23.10
2016,08,25,09,04,23.10
2016,08,25,09,05,23.20
2016,08,25,09,06,23.20
2016,08,25,09,07,23.30
2016,08,25,09,08,23.40
2016,08,25,09,09,23.40
2016,08,25,09,10,23.40
2016,08,25,09,11,23.50
2016,08,25,09,12,23.50
2016,08,25,09,13,23.60
2016,08,25,09,14,23.60
2016,08,25,09,15,23.70
2016,08,25,09,16,23.70
2016,08,25,09,17,23.70
2016,08,25,09,18,23.70
2016,08,25,09,19,23.80
2016,08,25,09,20,23.80
2016,08,25,09,21,23.80
2016,08,25,09,22,23.80
2016,08,25,09,23,23.80
2016,08,25,09,24,23.80
2016,08,25,09,25,23.80
2016,08,25,09,26,23.80
2016,08,25,09,27,23.70
2016,08,25,09,28,23.70
2016,08,25,09,29,23.70
2016,08,25,09,30,23.70
2016,08,25,09,31,23.70
2016,08,25,09,32,23.70
2016,08,25,09,33,23.60
2016,08,25,09,34,23.60
2016,08,25,09,35,23.50
2016,08,25,09,36,23.50
2016,08,25,09,37,23.50
2016,08,25,09,38,23.50
2016,08,25,09,39,23.50
2016,08,25,09,40,23.50
2016,08,25,09,41,23.50
2016,08,25,09,42,23.50
2016,08,25,09,43,23.50
2016,08,25,09,44,23.60
2016,08,25,09,45,23.60
2016,08,25,09,46,23.50
2016,08,25,09,47,23.50
2016,08,25,09,48,23.50
2016,08,25,09,49,23.50
2016,08,25,09,50,23.50
2016,08,25,09,51,23.60
2016,08,25,09,52,23.60
2016,08,25,09,53,23.60
2016,08,25,09,54,23.60
2016,08,25,09,55,23.60
2016,08,25,09,56,23.60
2016,08,25,09,57,23.60
2016,08,25,09,58,23.60
2016,08,25,09,59,23.60
2016,08,25,10,00,23.70
2016,08,25,10,01,23.70
2016,08,25,10,02,23.70
2016,08,25,10,03,23.80
2016,08,25,10,04,23.80
2016,08,25,10,05,23.80
2016,08,25,10,06,23.80
2016,08,25,10,07,23.80
2016,08,25,10,08,23.80
2016,08,25,10,09,23.70
2016,08,25,10,10,23.70
2016,08,25,10,11,23.70
2016,08,25,10,12,23.70
2016,08,25,10,13,23.70
2016,08,25,10,14,23.70
2016,08,25,10,15,23.80
2016,08,25,10,16,23.80
2016,08,25,10,17,23.80
2016,08,25,10,18,23.80
2016,08,25,10,19,23.80
2016,08,25,10,20,23.70
2016,08,25,10,21,23.70
2016,08,25,10,22,23.80
2016,08,25,10,23,23.80
2016,08,25,10,24,23.80
2016,08,25,10,25,23.80
2016,08,25,10,26,23.80
2016,08,25,10,27,23.80
2016,08,25,10,28,23.90
2016,08,25,10,29,23.90
2016,08,25,10,30,24.00
2016,08,25,10,31,23.90
2016,08,25,10,32,23.90
2016,08,25,10,33,23.90
2016,08,25,10,34,24.00
2016,08,25,10,35,24.00
2016,08,25,10,36,24.10
2016,08,25,10,37,24.10
2016,08,25,10,38,24.20
2016,08,25,10,39,24.30
2016,08,25,10,40,24.40
2016,08,25,10,41,24.40
2016,08,25,10,42,24.50
2016,08,25,10,43,24.50
2016,08,25,10,44,24.50
2016,08,25,10,45,24.50
2016,08,25,10,46,24.60
2016,08,25,10,47,24.60
2016,08,25,10,48,24.50
2016,08,25,10,49,24.40
2016,08,25,10,50,24.40
2016,08,25,10,51,24.30
2016,08,25,10,52,24.30
2016,08,25,10,53,24.20
2016,08,25,10,54,24.20
2016,08,25,10,55,24.20
2016,08,25,10,56,24.10
2016,08,25,10,57,24.10
2016,08,25,10,58,24.00
2016,08,25,10,59,23.90
2016,08,25,11,00,23.90
2016,08,25,11,01,23.80
2016,08,25,11,02,23.70
2016,08,25,11,03,23.60
2016,08,25,11,04,23.50
2016,08,25,11,05,23.40
2016,08,25,11,06,23.40
2016,08,25,11,07,23.30
2016,08,25,11,08,23.40
2016,08,25,11,09,23.40
2016,08,25,11,10,23.50
2016,08,25,11,11,23.60
2016,08,25,11,12,23.70
2016,08,25,11,13,23.80
2016,08,25,11,14,23.90
2016,08,25,11,15,24.00
2016,08,25,11,16,24.00
2016,08,25,11,17,24.10
2016,08,25,11,18,24.10
2016,08,25,11,19,24.20
2016,08,25,11,20,24.20
2016,08,25,11,21,24.30
2016,08,25,11,22,24.30
2016,08,25,11,23,24.30
2016,08,25,11,24,24.20
2016,08,25,11,25,24.20
2016,08,25,11,26,24.20
2016,08,25,11,27,24.20
2016,08,25,11,28,24.20
2016,08,25,11,29,24.20
2016,08,25,11,30,24.20
2016,08,25,11,31,24.20
2016,08,25,11,32,24.20
2016,08,25,11,33,24.20
2016,08,25,11,34,24.20
2016,08,25,11,35,24.30
2016,08,25,11,36,24.30
2016,08,25,11,37,24.40
2016,08,25,11,38,24.40
2016,08,25,11,39,24.40
2016,08,25,11,40,24.40
2016,08,25,11,41,24.40
2016,08,25,11,42,24.40
2016,08,25,11,43,24.30
2016,08,25,11,44,24.30
2016,08,25,11,45,24.20
2016,08,25,11,46,24.20
2016,08,25,11,47,24.10
2016,08,25,11,48,24.10
2016,08,25,11,49,24.10
2016,08,25,11,50,24.10
2016,08,25,11,51,24.10
2016,08,25,11,52,24.10
2016,08,25,11,53,24.10
2016,08,25,11,54,24.10
2016,08,25,11,55,24.10
2016,08,25,11,56,24.20
2016,08,25,11,57,24.20
2016,08,25,11,58,24.30
2016,08,25,11,59,24.30
2016,08,25,12,00,24.30
2016,08,25,12,01,24.30
2016,08,25,12,02,24.30
2016,08,25,12,03,24.30
2016,08,25,12,04,24.20
2016,08,25,12,05,24.10
2016,08,25,12,06,24.00
2016,08,25,12,07,23.90
2016,08,25,12,08,23.80
2016,08,25,12,09,23.70
2016,08,25,12,10,23.60
2016,08,25,12,11,23.50
2016,08,25,12,12,23.40
2016,08,25,12,13,23.30
2016,08,25,12,14,23.30
2016,08,25,12,15,23.20
2016,08,25,12,16,23.20
2016,08,25,12,17,23.20
2016,08,25,12,18,23.20
2016,08,25,12,19,23.20
2016,08,25,12,20,23.20
2016,08,25,12,21,23.20
2016,08,25,12,22,23.20
2016,08,25,12,23,23.10
2016,08,25,12,24,23.10
2016,08,25,12,25,23.10
2016,08,25,12,26,23.20
2016,08,25,12,27,23.20
2016,08,25,12,28,23.20
2016,08,25,12,29,23.30
2016,08,25,12,30,23.30
2016,08,25,12,31,23.30
2016,08,25,12,32,23.30
2016,08,25,12,33,23.30
2016,08,25,12,34,23.30
2016,08,25,12,35,23.30
2016,08,25,12,36,23.30
2016,08,25,12,37,23.40
2016,08,25,12,38,23.40
2016,08,25,12,39,23.50
2016,08,25,12,40,23.60
2016,08,25,12,41,23.70
2016,08,25,12,42,23.80
2016,08,25,12,43,23.80
2016,08,25,12,44,23.90
2016,08,25,12,45,24.00
2016,08,25,12,46,24.10
2016,08,25,12,47,24.20
2016,08,25,12,48,24.30
2016,08,25,12,49,24.40
2016,08,25,12,50,24.50
2016,08,25,12,51,24.60
2016,08,25,12,52,24.70
2016,08,25,12,53,24.80
2016,08,25,12,54,24.80
2016,08,25,12,55,24.80
2016,08,25,12,56,24.90
2016,08,25,12,57,24.90
2016,08,25,12,58,25.00
2016,08,25,12,59,25.00
2016,08,25,13,00,25.10
2016,08,25,13,01,25.10
2016,08,25,13,02,25.20
2016,08,25,13,03,25.20
2016,08,25,13,04,25.30
2016,08,25,13,05,25.30
2016,08,25,13,06,25.40
2016,08,25,13,07,25.50
2016,08,25,13,08,25.50
2016,08,25,13,09,25.40
2016,08,25,13,10,25.30
2016,08,25,13,11,25.30
2016,08,25,13,12,25.20
2016,08,25,13,13,25.20
2016,08,25,13,14,25.30
2016,08,25,13,15,25.30
2016,08,25,13,16,25.30
2016,08,25,13,17,25.30
2016,08,25,13,18,25.30
2016,08,25,13,19,25.40
2016,08,25,13,20,25.40
2016,08,25,13,21,25.40
2016,08,25,13,22,25.50
2016,08,25,13,23,25.60
2016,08,25,13,24,25.70
2016,08,25,13,25,25.80
2016,08,25,13,26,25.80
2016,08,25,13,27,25.90
2016,08,25,13,28,25.90
2016,08,25,13,29,26.00
2016,08,25,13,30,26.10
2016,08,25,13,31,26.20
2016,08,25,13,32,26.20
2016,08,25,13,33,26.30
2016,08,25,13,34,26.30
2016,08,25,13,35,26.30
2016,08,25,13,36,26.30
2016,08,25,13,37,26.30
2016,08,25,13,38,26.40
2016,08,25,13,39,26.40
2016,08,25,13,40,26.40
2016,08,25,13,41,26.40
2016,08,25,13,42,26.50
2016,08,25,13,43,26.60
2016,08,25,13,44,26.60
2016,08,25,13,45,26.70
2016,08,25,13,46,26.70
2016,08,25,13,47,26.80
2016,08,25,13,48,26.80
2016,08,25,13,49,26.90
2016,08,25,13,50,27.00
2016,08,25,13,51,27.10
2016,08,25,13,52,27.20
2016,08,25,13,53,27.30
2016,08,25,13,54,27.30
2016,08,25,13,55,27.30
2016,08,25,13,56,27.30
2016,08,25,13,57,27.30
2016,08,25,13,58,27.30
2016,08,25,13,59,27.30
2016,08,25,14,00,27.30
2016,08,25,14,01,27.40
2016,08,25,14,02,27.40
2016,08,25,14,03,27.40
2016,08,25,14,04,27.40
2016,08,25,14,05,27.40
2016,08,25,14,06,27.40
2016,08,25,14,07,27.50
2016,08,25,14,08,27.50
2016,08,25,14,09,27.50
2016,08,25,14,10,27.60
2016,08,25,14,11,27.60
2016,08,25,14,12,27.60
2016,08,25,14,13,27.60
2016,08,25,14,14,27.60
2016,08,25,14,15,27.50
2016,08,25,14,16,27.50
2016,08,25,14,17,27.40
2016,08,25,14,18,27.40
2016,08,25,14,19,27.40
2016,08,25,14,20,27.40
2016,08,25,14,21,27.40
2016,08,25,14,22,27.40
2016,08,25,14,23,27.40
2016,08,25,14,24,27.40
2016,08,25,14,25,27.40
2016,08,25,14,26,27.40
2016,08,25,14,27,27.50
2016,08,25,14,28,27.50
2016,08,25,14,29,27.50
2016,08,25,14,30,27.50
2016,08,25,14,31,27.60
2016,08,25,14,32,27.60
2016,08,25,14,33,27.60
2016,08,25,14,34,27.60
2016,08,25,14,35,27.60
2016,08,25,14,36,27.60
2016,08,25,14,37,27.50
2016,08,25,14,38,27.50
2016,08,25,14,39,27.40
2016,08,25,14,40,27.40
2016,08,25,14,41,27.40
2016,08,25,14,42,27.50
2016,08,25,14,43,27.50
2016,08,25,14,44,27.50
2016,08,25,14,45,27.50
2016,08,25,14,46,27.50
2016,08,25,14,47,27.60
2016,08,25,14,48,27.60
2016,08,25,14,49,27.60
2016,08,25,14,50,27.60
2016,08,25,14,51,27.60
2016,08,25,14,52,27.60
2016,08,25,14,53,27.70
2016,08,25,14,54,27.70
2016,08,25,14,55,27.70
2016,08,25,14,56,27.70
2016,08,25,14,57,27.80
2016,08,25,14,58,27.80
2016,08,25,14,59,27.80
2016,08,25,15,00,27.80
2016,08,25,15,01,27.90
2016,08,25,15,02,27.90
2016,08,25,15,03,27.90
2016,08,25,15,04,27.90
2016,08,25,15,05,27.90
2016,08,25,15,06,27.90
2016,08,25,15,07,28.00
2016,08,25,15,08,28.00
2016,08,25,15,09,28.10
2016,08,25,15,10,28.10
2016,08,25,15,11,28.20
2016,08,25,15,12,28.20
2016,08,25,15,13,28.30
2016,08,25,15,14,28.30
2016,08,25,15,15,28.30
2016,08,25,15,16,28.40
2016,08,25,15,17,28.40
2016,08,25,15,18,28.50
2016,08,25,15,19,28.50
2016,08,25,15,20,28.50
2016,08,25,15,21,28.50
2016,08,25,15,22,28.50
2016,08,25,15,23,28.50
2016,08,25,15,24,28.50
2016,08,25,15,25,28.60
2016,08,25,15,26,28.60
2016,08,25,15,27,28.60
2016,08,25,15,28,28.60
2016,08,25,15,29,28.60
2016,08,25,15,30,28.60
2016,08,25,15,31,28.60
2016,08,25,15,32,28.60
2016,08,25,15,33,28.70
2016,08,25,15,34,28.70
2016,08,25,15,35,28.70
2016,08,25,15,36,28.70
2016,08,25,15,37,28.70
2016,08,25,15,38,28.70
2016,08,25,15,39,28.80
2016,08,25,15,40,28.80
2016,08,25,15,41,28.80
2016,08,25,15,42,28.80
2016,08,25,15,43,28.80
2016,08,25,15,44,28.80
2016,08,25,15,45,28.90
2016,08,25,15,46,28.90
2016,08,25,15,47,28.90
2016,08,25,15,48,28.90
2016,08,25,15,49,29.00
2016,08,25,15,50,29.10
2016,08,25,15,51,29.10
2016,08,25,15,52,29.20
2016,08,25,15,53,29.20
2016,08,25,15,54,29.20
2016,08,25,15,55,29.30
2016,08,25,15,56,29.30
2016,08,25,15,57,29.30
2016,08,25,15,58,29.30
2016,08,25,15,59,29.40
2016,08,25,16,00,29.40
2016,08,25,16,01,29.50
2016,08,25,16,02,29.50
2016,08,25,16,03,29.60
2016,08,25,16,04,29.70
2016,08,25,16,05,29.70
2016,08,25,16,06,29.70
2016,08,25,16,07,29.80
2016,08,25,16,08,29.80
2016,08,25,16,09,29.80
2016,08,25,16,10,29.80
2016,08,25,16,11,29.80
2016,08,25,16,12,29.80
2016,08,25,16,13,29.90
2016,08,25,16,14,29.90
2016,08,25,16,15,30.00
2016,08,25,16,16,30.00
2016,08,25,16,17,30.10
2016,08,25,16,18,30.20
2016,08,25,16,19,30.20
2016,08,25,16,20,30.30
2016,08,25,16,21,30.20
2016,08,25,16,22,30.20
2016,08,25,16,23,30.20
2016,08,25,16,24,30.10
2016,08,25,16,25,30.00
2016,08,25,16,26,30.00
2016,08,25,16,27,29.90
2016,08,25,16,28,29.90
2016,08,25,16,29,29.90
2016,08,25,16,30,30.00
2016,08,25,16,31,30.10
2016,08,25,16,32,30.10
2016,08,25,16,33,30.10
2016,08,25,16,34,30.10
2016,08,25,16,35,30.20
2016,08,25,16,36,30.20
2016,08,25,16,37,30.20
2016,08,25,16,38,30.20
2016,08,25,16,39,30.20
2016,08,25,16,40,30.20
2016,08,25,16,41,30.20
2016,08,25,16,42,30.20
2016,08,25,16,43,30.10
2016,08,25,16,44,30.10
2016,08,25,16,45,30.10
2016,08,25,16,46,30.10
2016,08,25,16,47,30.10
2016,08,25,16,48,30.10
2016,08,25,16,49,30.20
2016,08,25,16,50,30.20
2016,08,25,16,51,30.20
2016,08,25,16,52,30.20
2016,08,25,16,53,30.30
2016,08,25,16,54,30.30
2016,08,25,16,55,30.30
2016,08,25,16,56,30.30
2016,08,25,16,57,30.30
2016,08,25,16,58,30.30
2016,08,25,16,59,30.30
2016,08,25,17,00,30.30
2016,08,25,17,01,30.30
2016,08,25,17,02,30.30
2016,08,25,17,03,30.30
2016,08,25,17,04,30.30
2016,08,25,17,05,30.30
2016,08,25,17,06,30.30
2016,08,25,17,07,30.30
2016,08,25,17,08,30.40
2016,08,25,17,09,30.40
2016,08,25,17,10,30.40
2016,08,25,17,11,30.40
2016,08,25,17,12,30.40
2016,08,25,17,13,30.40
2016,08,25,17,14,30.40
2016,08,25,17,15,30.40
2016,08,25,17,16,30.40
2016,08,25,17,17,30.40
2016,08,25,17,18,30.40
2016,08,25,17,19,30.50